EHI
9 10 14 26 46 68 83 89 93 97 98 97 93 86 75 60 46 37 32 28 24 19 13 10 11 11 9 6 6 5 3 2 2 1 0 0 0 0 0 0 0 0 0
15 15 18 26 41 61 76 86 94 98 97 96 91 81 68 54 42 33 26 21 18 14 9 7 8 8 5 4 3 2 1 1 1 0 0 0 0 0 0 0 0 0 0
24 25 26 32 44 57 67 78 90 96 95 91 84 72 57 44 33 24 17 12 9 7 4 3 3 3 2 1 1 0 0 0 0 0 0 0 0 0 0 0 0 0 0
37 36 37 44 54 62 68 75 84 89 87 82 74 62 48 35 24 16 10 5 3 2 1 0 1 1 0 0 0 0 0 0 0 0 0 0 0 0 0 0 0 0 0
46 44 45 52 61 68 72 74 76 74 69 65 59 50 38 26 16 8 4 1 0 0 0 0 0 0 0 0 0 0 0 0 0 0 0 0 0 0 0 0 0 0 0
43 43 45 50 57 64 66 63 57 51 46 43 40 33 26 16 6 2 1 0 0 0 0 0 0 0 0 0 0 0 0 0 0 0 0 0 0 0 0 0 0 0 0
30 31 35 37 40 46 46 40 33 28 25 24 21 18 12 6 1 0 0 0 0 0 0 0 0 0 0 0 0 0 0 0 0 0 0 0 0 0 0 0 0 0 0
16 15 17 20 22 24 23 19 16 13 12 11 8 6 3 1 0 0 0 0 0 0 0 0 0 0 0 0 0 0 0 0 0 0 0 0 0 0 0 0 0 0 0
6 5 6 8 9 9 8 7 6 5 4 3 2 1 1 0 0 0 0 0 0 0 0 0 0 0 0 0 0 0 0 0 0 0 0 0 0 0 0 0 0 0 0
1 1 2 3 3 2 2 2 1 1 0 0 0 0 0 0 0 0 0 0 0 0 0 0 0 0 0 0 0 0 0 0 0 0 0 0 0 0 0 0 0 0 0
0 0 1 1 1 0 0 0 0 0 0 0 0 0 0 0 0 0 0 0 0 0 0 0 0 0 0 0 0 0 0 0 0 0 0 0 0 0 0 0 0 0 0
0 0 0 0 0 0 0 0 0 0 0 0 0 0 0 0 0 0 0 0 0 0 0 0 0 0 0 0 0 0 0 0 0 0 0 0 0 0 0 0 0 0 0
0 0 0 0 0 0 0 0 0 0 0 0 0 0 0 0 0 0 0 0 0 0 0 0 0 0 0 0 0 0 0 0 0 0 0 0 0 0 0 0 0 0 0
0 0 0 0 0 0 0 0 0 0 0 0 0 0 0 0 0 0 0 0 0 0 0 0 0 0 0 0 0 0 0 0 0 0 0 0 0 0 0 0 0 0 0
0 0 0 0 0 0 0 0 0 0 0 0 0 0 0 0 0 0 0 0 0 0 0 0 0 0 0 0 0 0 0 0 0 0 0 0 0 0 0 0 0 0 0
0 0 0 0 0 0 0 0 0 0 0 0 0 0 0 0 0 0 0 0 0 0 0 0 0 0 0 0 0 0 0 0 0 0 0 0 0 0 0 0 0 0 0
0 0 0 0 0 0 0 0 0 0 0 0 0 0 0 0 0 0 0 0 0 0 0 0 0 0 0 0 0 0 0 0 0 0 0 0 0 0 0 0 0 0 0
0 0 0 0 0 0 0 0 0 0 0 0 0 0 0 0 0 0 0 0 0 0 0 0 0 0 0 0 0 0 0 0 0 0 0 0 0 0 0 0 0 0 0
0 0 0 0 0 0 0 0 0 0 0 0 0 0 0 0 0 0 0 0 0 0 0 0 0 0 0 0 0 0 0 0 0 0 0 0 0 0 0 0 0 0 0
0 0 0 0 0 0 0 0 0 0 0 0 0 0 0 0 0 0 0 0 0 0 0 0 0 0 0 0 0 0 0 0 0 0 0 0 0 0 0 0 0 0 0
0 0 0 0 0 0 0 0 0 0 0 0 0 0 0 0 0 0 0 0 0 0 0 0 0 0 0 0 0 0 0 0 0 0 0 0 0 0 0 0 0 0 0
0 0 0 0 0 0 0 0 0 0 0 0 0 0 0 0 0 0 0 0 0 0 0 0 0 0 0 0 0 0 0 0 0 0 0 0 0 0 0 0 0 0 0
0 0 0 0 0 0 0 0 0 0 0 0 0 0 0 0 0 0 0 0 0 0 0 0 0 0 0 0 0 0 0 0 0 0 0 0 0 0 0 0 0 0 0
0 0 0 0 0 0 0 0 0 0 0 0 0 0 0 0 0 0 0 0 0 0 0 0 0 0 0 0 0 0 0 0 0 0 0 0 0 0 0 0 0 0 0
0 0 0 0 0 0 0 0 0 0 0 0 0 0 0 0 0 0 0 0 0 0 0 0 0 0 0 0 0 0 0 0 0 0 0 0 0 0 0 0 0 0 0
0 0 0 0 0 0 0 0 0 0 0 0 0 0 0 0 0 0 0 0 0 0 0 0 0 0 0 0 0 0 0 0 0 0 0 0 0 0 0 0 0 0 0
Wind_Speed
7 7 8 10 12 14 14 15 15 15 12 10 10 8 7 6 4 3 3 2 2 2 2 1 1 1 2 2 3 2 2 1 1 2 3 2 2 2 2 2 2 1 1
6 4 5 7 10 12 14 14 15 15 15 11 9 7 7 5 4 4 4 4 3 3 3 3 3 3 3 4 3 3 2 1 1 3 4 4 5 5 4 3 4 3 3
7 6 3 4 7 9 11 11 13 13 13 12 9 8 6 5 4 5 4 4 4 4 4 4 3 3 3 3 3 3 4 2 2 1 3 4 4 2 5 5 5 5 5
8 7 5 2 1 3 5 8 10 11 12 13 12 13 9 7 6 4 4 5 4 4 4 4 4 4 4 4 4 2 1 2 2 2 1 2 4 4 4 5 6 7 7
11 9 8 7 6 5 5 7 8 9 10 10 11 10 7 5 5 6 7 6 6 5 5 5 5 4 4 4 4 3 2 1 0 1 1 1 2 4 6 6 5 6 7
11 12 12 11 11 10 10 9 10 10 9 8 8 7 9 8 8 7 7 6 5 6 7 7 6 5 5 5 5 4 4 3 2 1 1 2 3 4 5 8 8 8 7
12 12 13 13 13 13 12 11 12 11 10 9 8 8 9 8 8 7 7 7 6 6 7 7 6 6 5 5 4 4 3 3 2 1 2 3 4 5 6 8 9 10 9
12 13 13 13 13 14 13 13 13 13 12 11 10 9 8 6 6 7 7 7 6 7 8 7 7 7 6 5 4 3 3 1 1 2 3 4 5 5 7 8 10 11 11
13 13 14 14 14 14 14 14 14 14 13 13 12 11 10 10 10 10 9 8 8 8 8 8 7 6 5 4 3 3 2 1 2 3 4 5 6 6 7 8 9 11 13
12 13 13 13 13 13 13 14 15 14 14 13 11 10 11 11 10 10 10 9 9 9 9 8 7 6 6 5 3 3 2 1 2 3 5 6 7 6 7 8 8 9 11
11 11 11 11 12 13 13 14 14 14 13 13 12 12 12 11 11 10 10 10 9 8 8 7 7 6 5 4 2 2 2 3 4 5 6 7 8 8 8 8 8 9 10
11 11 11 11 12 13 13 13 13 13 13 12 12 12 12 11 11 11 10 9 9 8 7 7 6 5 4 3 3 3 3 4 5 6 7 8 7 8 9 8 9 9 9
11 11 11 11 11 12 12 12 12 12 11 12 12 12 11 11 11 10 9 9 8 8 7 6 5 4 3 3 3 4 5 6 7 7 8 9 9 9 9 9 9 9 9
11 11 10 10 10 10 10 11 11 10 11 11 12 11 11 10 10 9 9 8 7 7 6 4 3 2 2 3 5 6 6 7 8 8 8 9 9 9 10 9 10 9 10
11 10 10 9 9 9 9 9 9 9 10 11 11 11 10 9 9 8 7 6 6 5 4 3 2 2 2 6 8 9 8 8 9 9 9 8 8 10 10 10 11 11 10
11 10 9 9 9 8 9 9 9 9 9 10 10 9 9 8 7 6 5 5 4 4 3 4 3 3 5 8 8 10 11 10 10 10 9 9 9 7 10 13 14 15 15
10 9 8 8 8 8 8 9 9 9 9 9 9 8 7 6 5 5 5 4 4 4 4 4 4 4 7 6 7 10 12 11 9 10 9 8 7 9 9 10 14 16 16
9 9 8 8 8 9 9 9 9 9 9 8 7 6 6 6 5 5 5 4 4 3 4 4 5 4 5 5 8 13 12 9 9 9 9 9 9 7 10 14 15 14 13
9 9 9 9 9 9 8 9 8 8 8 7 6 6 5 5 5 5 5 4 4 4 4 4 5 5 3 5 7 13 10 8 9 9 8 8 9 7 11 14 14 14 12
9 9 9 10 9 8 7 8 8 7 7 7 6 6 5 5 5 5 4 4 3 4 4 4 4 5 5 3 5 12 8 8 8 8 8 5 5 11 13 13 13 13 13
10 10 10 9 8 6 6 7 7 7 6 6 6 6 5 4 4 3 3 3 3 4 4 4 4 4 5 2 2 8 8 9 9 8 7 6 7 12 14 13 11 11 14
10 10 9 8 6 5 6 6 7 6 5 5 5 5 3 3 3 2 2 2 3 3 3 4 5 4 4 4 5 8 9 10 10 8 7 8 12 15 16 12 10 14 13
9 8 8 8 6 5 5 6 5 4 4 4 4 4 2 2 2 2 2 2 3 3 4 4 5 5 5 3 4 8 10 10 9 8 10 12 14 14 10 7 11 11 7
9 7 7 7 7 6 6 5 4 3 3 4 3 2 1 1 1 2 3 3 4 5 5 5 6 6 6 6 8 9 8 8 8 8 9 10 10 9 8 8 7 6 6
8 7 7 7 7 6 6 5 5 3 3 2 1 1 1 2 2 1 3 4 6 6 7 7 7 7 7 8 11 9 8 9 9 11 8 6 7 8 8 8 8 8 7
8 7 7 7 7 6 6 5 3 2 2 1 2 2 2 2 2 2 2 3 2 4 1 2 5 6 6 10 11 11 11 12 12 9 6 7 7 8 8 9 9 8 7
Wind_Direction
259 249 231 221 213 206 202 200 197 188 184 182 180 177 174 163 151 134 122 128 129 129 125 116 135 168 164 160 151 132 146 154 254 249 239 224 242 264 246 250 250 202 256
304 287 249 221 216 211 206 201 197 190 186 183 177 172 157 148 137 130 125 130 132 138 146 165 172 177 170 166 163 161 180 176 220 262 262 246 212 210 218 224 228 245 249
336 330 306 244 218 211 206 203 197 188 183 170 159 148 143 141 146 151 143 133 140 135 134 152 162 155 152 150 151 170 192 189 181 272 277 277 282 225 193 219 235 244 260
2 355 357 356 192 191 187 185 178 170 166 162 164 164 169 167 160 151 138 126 119 120 124 129 133 132 129 135 145 145 169 185 183 156 310 322 333 297 272 213 219 234 252
25 29 34 44 58 78 104 122 133 142 149 154 158 161 157 140 130 129 128 123 110 107 112 112 108 105 101 102 102 107 95 104 127 171 196 237 253 262 278 285 273 252 251
41 46 52 58 62 70 81 93 103 108 120 131 137 138 130 129 133 137 133 124 112 108 107 104 100 97 95 95 95 94 89 71 64 2 313 288 287 286 287 285 281 280 278
49 50 52 55 58 63 71 80 88 88 91 95 97 104 114 123 132 135 131 123 114 107 103 102 102 100 98 99 98 96 85 78 66 339 315 306 297 300 293 289 290 289 285
52 51 50 52 57 60 66 73 77 78 78 80 81 83 90 96 97 99 104 104 103 102 106 104 104 105 105 105 104 104 96 81 7 309 305 291 284 293 291 293 296 292 288
56 54 51 52 55 58 61 68 74 74 72 75 77 76 77 81 87 93 97 101 107 112 109 106 101 98 94 90 87 75 60 35 321 304 291 293 300 290 291 288 285 290 293
61 56 53 53 55 59 63 67 70 73 73 74 75 80 82 86 93 95 95 98 101 102 105 100 96 93 89 89 87 99 65 339 322 317 314 305 298 304 289 284 285 284 286
68 62 59 59 61 63 64 67 70 73 74 75 77 79 81 84 88 89 91 92 92 95 97 98 98 95 91 84 67 39 1 326 322 311 309 307 310 302 305 295 288 286 288
79 74 71 68 66 65 66 67 69 72 75 79 81 81 84 85 85 86 86 90 92 94 97 97 95 92 84 65 36 5 345 330 327 325 316 309 306 302 292 296 297 297 297
85 78 71 68 67 68 69 71 72 74 78 82 83 82 82 83 84 85 86 88 89 87 85 86 85 79 63 38 9 345 337 332 325 319 312 309 305 299 301 301 294 293 292
87 82 78 75 74 72 72 73 73 76 80 81 81 79 77 78 79 77 75 76 80 82 81 80 76 62 33 12 354 339 332 323 317 310 305 301 301 302 305 297 293 295 296
92 88 85 83 82 81 79 77 77 77 82 85 83 81 78 76 73 71 70 71 75 81 84 76 59 27 28 27 359 336 325 319 311 306 303 301 307 302 298 303 309 306 299
96 92 89 87 86 87 88 87 84 83 85 85 82 81 80 78 75 73 76 76 72 66 54 40 25 12 44 44 6 332 321 314 309 310 310 305 287 288 279 275 283 289 291
95 94 91 88 90 92 93 92 91 90 88 88 89 90 90 87 86 85 78 71 63 51 35 20 8 21 69 39 357 336 313 307 313 312 309 307 315 306 307 307 293 281 269
94 95 97 97 95 96 96 96 96 97 97 97 95 95 96 92 83 76 70 59 46 32 20 11 1 355 67 44 348 329 300 305 312 309 305 307 312 333 337 316 303 299 298
95 97 100 101 100 101 104 104 105 106 105 101 97 92 89 86 79 71 62 46 32 22 7 12 357 349 49 55 350 329 314 314 315 310 307 308 311 357 334 309 301 302 305
100 103 103 102 101 104 111 110 108 106 100 94 90 87 80 71 66 61 48 43 26 16 0 11 357 348 358 57 348 328 316 320 317 312 309 294 327 329 315 308 306 308 316
107 109 107 104 106 114 114 109 105 97 94 94 91 85 77 72 65 61 45 26 14 13 359 354 349 349 351 13 19 332 326 327 316 314 316 333 348 319 308 301 299 310 309
110 110 109 108 112 115 113 106 98 96 95 95 92 86 68 49 61 48 27 6 352 345 351 350 350 356 357 355 355 320 307 306 310 313 321 332 328 311 301 299 308 305 298
114 116 115 112 108 102 93 93 94 93 92 92 84 81 84 64 22 353 352 341 347 348 354 354 353 352 349 351 332 314 305 297 305 316 315 306 301 299 297 293 298 300 313
119 120 117 108 99 92 83 79 82 83 83 82 77 70 42 48 45 332 353 0 3 0 358 357 354 348 346 358 352 338 330 328 321 326 315 299 290 297 318 320 322 329 340
116 111 101 98 98 94 86 82 82 83 79 74 52 356 5 16 343 8 28 5 38 25 351 354 353 348 344 353 336 324 330 331 331 322 317 336 346 346 347 345 344 343 351
116 109 104 101 99 97 89 79 69 44 360 346 347 344 350 359 341 1 116 127 55 126 153 340 339 342 349 332 326 326 323 316 315 317 338 346 345 344 342 340 340 345 351